{"data":{"norad_id":68390,"epoch":"2026-05-25T03:01:07.606272Z","epoch_age_seconds":64338,"freshness":"FRESH","line1":"1 68390U 26063L   26145.12578248  .00435957  00000+0  18671-2 0  9995","line2":"2 68390  97.2854 289.1383 0005104 259.2965 100.7730 15.84011159  9704","mean_motion":15.84011159,"eccentricity":0.0005104,"inclination_deg":97.2854,"raan_deg":289.1383,"arg_perigee_deg":259.2965,"mean_anomaly_deg":100.773,"bstar":0.0018671,"rev_number":970,"period_min":90.908450475127,"perigee_km":315.69224566082,"apogee_km":322.52879593005,"semimajor_km":6697.2475207954,"source":"CELESTRAK","updated_at":"2026-05-25T13:38:21.930202Z"}}